SCP
0 0 0 0 0 0 0 0 0 0 0 0 0 0 0 0 0 0 0 0 0 0 0 0 0 0 0 0 0 0 0 0 0 0 0 0 0 0 0 0 0 0 0
0 0 0 0 0 0 0 0 0 0 0 0 0 0 0 0 0 0 0 0 0 0 0 0 0 0 0 0 0 0 0 0 0 0 0 0 0 0 0 0 0 0 0
0 0 0 0 0 0 0 0 0 0 0 0 0 0 0 0 0 0 0 0 0 0 0 0 0 0 0 0 0 0 0 0 0 0 0 0 0 0 0 0 0 0 0
0 0 0 0 0 0 0 0 0 0 0 0 0 0 0 0 0 0 0 0 0 0 0 0 0 0 0 0 0 0 0 0 0 0 0 0 0 0 0 0 0 0 0
0 0 0 0 0 0 0 0 0 0 0 0 0 0 0 0 0 0 0 0 0 0 0 0 0 0 0 0 0 0 0 0 0 0 0 0 0 0 0 0 0 0 0
0 0 0 0 0 0 0 0 0 0 0 0 0 0 0 0 0 0 0 0 0 0 0 0 0 0 0 0 0 0 0 0 0 0 0 0 0 0 0 0 0 0 0
0 0 0 0 0 0 0 0 0 0 0 0 0 0 0 0 0 0 0 0 0 0 0 0 0 0 0 0 0 0 0 0 0 0 0 0 0 0 0 0 0 0 0
0 0 0 0 0 0 0 0 0 0 0 0 0 0 0 0 0 0 0 0 0 0 0 0 0 0 0 0 0 0 0 0 0 0 0 0 0 0 0 0 0 0 0
0 0 0 0 0 0 0 0 0 0 0 0 0 0 0 0 0 0 0 0 0 0 0 0 0 0 0 0 0 0 0 0 0 0 0 0 0 0 0 0 0 0 0
0 0 0 0 0 0 0 0 0 0 0 0 0 0 0 0 0 0 0 0 0 0 0 0 0 0 0 0 0 0 0 0 0 0 0 0 0 0 0 0 0 0 0
0 0 0 0 0 0 0 0 0 0 0 0 0 0 0 0 0 0 0 0 0 0 0 0 0 0 0 0 0 0 0 0 0 0 0 0 0 0 0 0 0 0 0
0 0 0 0 0 0 0 0 0 0 0 0 0 0 0 0 0 0 0 0 0 0 0 0 0 0 0 0 0 0 0 0 0 0 0 0 0 0 0 0 0 0 0
0 0 0 0 0 0 0 0 0 0 0 0 0 0 0 0 0 0 0 0 0 0 0 0 0 0 0 0 0 0 0 0 0 0 0 0 0 0 0 0 0 0 0
0 0 0 0 0 0 0 0 0 0 0 0 0 0 0 0 0 0 0 0 0 0 0 0 0 0 0 0 0 0 0 0 0 0 0 0 0 0 0 0 0 0 0
0 0 0 0 0 0 0 0 0 0 0 0 0 0 0 0 0 0 0 0 0 0 0 0 0 0 0 0 0 0 0 0 0 0 0 0 0 0 0 0 0 0 0
0 0 0 0 0 0 0 0 0 0 0 0 0 0 0 0 0 0 0 0 0 0 0 0 0 0 0 0 0 0 0 0 0 0 0 0 0 0 0 0 0 0 0
0 0 0 0 0 0 0 0 0 0 0 0 0 0 0 0 0 0 0 0 0 0 0 0 0 0 0 0 0 0 0 0 0 0 0 0 0 0 0 0 0 0 0
0 0 0 0 0 0 0 0 0 0 0 0 0 0 0 0 0 0 0 0 0 0 0 0 0 0 0 0 0 0 0 0 0 0 0 0 0 0 0 0 0 0 0
0 0 0 0 0 0 0 0 0 0 0 0 0 0 0 0 0 0 0 0 0 0 0 0 0 0 0 0 0 0 0 0 0 0 0 0 0 0 0 0 0 0 0
0 0 0 0 0 0 0 0 0 0 0 0 0 0 0 0 0 0 0 0 0 0 0 0 0 0 0 0 0 0 0 0 0 0 0 0 0 0 0 0 0 0 0
0 0 0 0 0 0 0 0 0 0 0 0 0 0 0 0 0 0 0 0 0 0 0 0 0 0 0 0 0 0 0 0 0 0 0 0 0 0 0 0 0 0 0
0 0 0 0 0 0 0 0 0 0 0 0 0 0 0 0 0 0 0 0 0 0 0 0 0 0 0 0 0 0 0 0 0 0 0 0 0 0 0 0 0 0 0
0 0 0 0 0 0 0 0 0 0 0 0 0 0 0 0 0 0 0 0 0 0 0 0 0 0 0 0 0 0 0 0 0 0 0 0 0 0 0 0 0 0 0
0 0 0 0 0 0 0 0 0 0 0 0 0 0 0 0 0 0 0 0 0 0 0 0 0 0 0 0 0 0 0 0 0 0 0 0 0 0 0 0 0 0 0
0 0 0 0 0 0 0 0 0 0 0 0 0 0 0 0 0 0 0 0 0 0 0 0 0 0 0 0 0 0 0 0 0 0 0 0 0 0 0 0 0 0 0
0 0 0 0 0 0 0 0 0 0 0 0 0 0 0 0 0 0 0 0 0 0 0 0 0 0 0 0 0 0 0 0 0 0 0 0 0 0 0 0 0 0 0
Wind_Speed
8 8 8 7 7 7 7 6 5 5 5 5 5 5 5 5 5 4 4 5 5 5 5 5 6 6 5 5 5 5 6 7 15 16 7 5 6 7 7 7 8 9 10
7 8 8 8 7 7 7 6 6 5 5 5 5 5 5 5 5 5 5 5 6 6 7 7 8 6 7 6 6 7 7 7 11 18 13 8 8 8 8 9 8 8 8
7 8 8 8 7 7 6 6 6 5 5 5 5 5 5 5 4 4 5 5 6 6 7 7 8 8 8 7 8 8 8 8 8 12 16 11 8 6 8 8 8 8 8
8 8 8 7 7 6 6 6 5 5 5 5 5 4 4 4 4 4 5 5 6 7 7 7 8 8 8 8 8 8 8 9 9 11 13 12 10 8 6 8 10 7 8
8 8 7 7 6 6 5 5 4 4 4 4 4 4 4 4 3 5 5 6 7 8 8 7 8 9 11 10 9 9 9 9 9 10 11 12 11 9 8 7 11 11 9
8 8 6 5 5 5 4 4 4 4 4 4 4 4 4 4 8 10 8 6 7 8 8 8 8 8 10 14 15 15 14 12 11 11 11 12 13 11 10 9 11 11 11
7 6 5 5 5 4 4 4 5 4 4 4 4 4 5 7 11 11 11 7 7 7 8 8 7 7 8 8 12 15 13 15 16 13 14 14 14 12 12 13 11 12 12
7 6 5 4 4 4 4 4 4 3 4 4 4 5 5 7 12 13 12 7 6 7 7 8 9 9 8 11 10 10 9 9 12 9 10 12 12 11 10 11 12 11 9
6 5 4 4 4 3 4 4 3 4 4 4 4 5 6 8 12 13 12 5 6 8 7 7 8 9 13 16 12 11 12 9 11 14 15 15 17 17 14 9 9 9 9
5 4 4 3 3 2 3 3 3 4 4 5 6 5 6 7 11 13 12 4 7 7 7 7 8 12 15 16 10 10 12 11 9 9 10 11 10 10 12 8 7 8 7
4 4 3 3 2 2 2 2 3 4 5 5 6 6 5 6 9 12 12 5 6 8 8 7 7 14 16 17 14 9 13 13 9 9 8 7 6 5 5 5 4 5 6
4 3 3 2 1 1 2 3 3 4 4 5 5 6 4 4 6 10 13 13 12 8 8 7 8 16 17 17 12 13 16 12 6 6 6 5 5 5 5 5 4 3 3
4 3 2 1 1 1 2 3 3 3 3 4 4 5 5 4 6 12 13 15 15 9 8 13 16 17 15 10 11 13 9 5 5 5 5 5 5 5 5 4 4 3 2
4 2 1 1 2 2 2 2 2 3 3 4 5 6 6 5 5 5 5 6 9 10 8 9 14 14 10 8 6 6 4 4 4 4 5 5 5 4 4 4 4 4 3
3 2 1 1 1 2 2 2 3 4 5 6 5 5 7 8 8 14 11 8 7 8 9 6 4 4 4 4 3 3 3 4 4 4 4 5 5 5 4 4 3 4 3
3 2 1 1 1 2 3 4 7 8 10 12 12 11 8 12 17 17 17 17 17 16 9 5 4 4 4 4 4 4 3 4 4 4 4 4 4 5 5 4 4 3 3
3 2 0 0 1 2 2 3 5 6 8 10 12 13 13 15 16 16 16 15 13 11 5 4 3 3 3 3 3 3 4 4 4 4 4 4 4 4 4 4 4 3 3
2 1 1 1 1 2 2 3 4 5 6 5 7 12 14 14 14 14 14 10 6 4 3 3 3 3 3 3 3 3 3 3 4 4 4 4 4 4 4 4 4 3 3
2 2 1 1 2 2 3 3 4 5 5 6 5 6 9 12 12 11 9 3 4 4 3 3 3 2 2 3 3 3 3 3 3 3 3 4 4 3 3 3 3 4 3
2 3 2 2 2 2 3 3 3 4 5 5 5 5 5 4 4 4 3 3 3 3 3 3 3 2 2 2 3 3 3 2 3 3 3 3 3 3 3 3 3 3 3
3 2 3 2 2 3 3 3 3 4 4 5 5 7 10 4 4 4 3 3 3 3 3 3 2 2 2 2 2 3 3 2 2 2 2 3 3 3 3 3 3 2 2
3 2 2 2 2 2 3 3 3 4 5 5 4 5 10 4 3 3 3 3 3 3 3 2 2 2 2 2 2 3 3 2 2 2 2 3 2 2 2 2 2 2 2
3 3 2 2 2 3 3 3 3 3 4 4 4 4 4 3 3 4 4 3 3 3 3 2 3 3 2 2 2 2 3 3 3 3 2 2 2 2 2 2 2 2 2
3 3 3 2 2 3 3 3 3 4 4 4 4 4 4 4 4 4 4 4 3 3 3 3 3 5 5 4 3 3 3 4 3 3 3 3 3 2 2 2 2 2 2
3 3 3 3 3 3 3 3 3 4 4 4 4 4 4 4 4 5 4 4 5 5 5 4 4 5 6 6 5 5 6 7 5 3 3 3 3 3 2 2 2 2 2
3 3 3 3 3 3 3 4 4 4 4 4 4 4 5 5 5 5 5 4 5 5 5 5 5 6 7 6 7 8 8 9 8 7 4 3 4 3 3 3 3 3 3
Wind_Direction
83 83 81 75 74 73 71 65 60 56 49 43 35 32 26 16 8 2 354 350 339 328 325 317 308 306 301 296 290 281 275 275 283 292 294 298 296 288 285 273 271 270 271
85 84 81 75 72 70 65 56 51 50 45 38 32 32 25 16 9 5 352 346 336 327 323 319 312 313 307 307 304 299 293 289 288 293 298 302 295 292 288 285 280 275 271
86 84 79 72 69 67 61 52 46 43 39 33 32 27 17 5 358 358 347 336 328 320 318 314 311 312 306 305 304 300 298 297 292 292 295 300 297 296 295 291 284 280 278
87 83 77 69 66 62 55 48 40 36 34 27 22 14 2 348 350 354 340 330 322 316 311 307 306 305 304 309 304 299 301 298 294 290 292 297 299 301 297 301 301 291 285
90 84 76 69 64 59 52 43 37 33 26 17 10 0 353 346 350 344 335 328 320 313 308 304 303 304 302 302 301 302 302 297 296 294 293 297 299 308 306 304 299 301 292
90 84 78 74 69 60 49 38 35 28 17 11 5 353 345 336 333 335 334 321 312 306 305 305 304 302 305 307 305 304 302 299 299 295 295 295 299 303 305 303 302 303 300
97 92 84 80 71 55 41 36 28 15 5 359 350 344 330 323 330 329 328 317 304 301 302 305 305 304 303 301 303 304 298 292 293 291 292 294 299 304 304 301 298 295 293
102 95 83 75 65 48 39 30 13 2 353 341 332 328 318 316 324 324 324 313 301 298 299 299 302 306 306 308 305 301 296 292 293 290 285 290 296 299 295 295 297 294 287
103 93 78 68 59 42 29 11 355 346 336 328 320 317 312 312 318 319 323 310 304 303 301 299 299 300 307 315 312 305 303 299 303 302 299 300 304 307 309 306 302 299 297
101 91 76 66 57 35 8 348 340 330 319 320 315 309 301 300 311 318 323 309 306 308 305 300 298 308 313 318 312 306 305 308 311 310 306 307 306 307 313 307 304 300 300
96 88 75 58 36 13 353 339 327 322 317 311 305 303 297 297 309 318 321 314 303 305 305 306 305 313 313 315 315 306 304 310 308 307 308 308 312 314 317 321 319 309 305
95 88 73 48 17 12 350 331 325 318 314 311 310 309 301 305 311 316 319 315 310 301 299 301 304 309 311 314 315 312 316 318 310 309 312 317 323 329 330 332 333 336 342
103 94 79 42 8 353 341 328 322 319 312 312 311 308 308 308 310 315 313 313 312 306 295 299 304 307 311 312 314 320 324 322 316 316 319 323 325 324 324 326 329 329 347
111 98 72 46 16 5 335 311 305 306 304 302 302 303 304 302 300 302 301 308 309 304 298 298 300 302 307 312 317 327 335 331 327 323 321 323 328 335 340 340 334 337 344
112 99 72 44 7 334 313 290 290 261 262 284 285 287 297 300 301 309 311 307 306 299 304 297 300 311 315 319 326 333 343 348 346 339 334 335 339 342 342 343 341 348 358
116 106 81 24 348 325 316 310 303 299 298 296 293 292 289 291 303 308 310 310 311 311 307 296 300 307 313 325 332 334 344 347 342 340 340 342 343 343 343 348 354 3 1
128 137 130 353 324 316 316 316 315 318 312 313 311 308 304 307 311 314 315 315 317 321 307 301 304 312 318 327 331 333 335 339 341 344 346 346 344 343 347 352 357 1 359
149 176 191 230 264 282 288 291 294 303 312 310 313 315 317 317 318 320 324 325 322 334 313 309 311 318 325 330 333 334 334 340 348 349 349 349 348 347 350 353 354 355 348
172 181 188 225 255 266 274 280 282 286 291 300 306 313 321 319 322 327 337 330 309 311 316 315 319 326 331 332 331 330 331 338 344 345 348 349 349 350 351 350 350 352 354
186 200 197 220 251 263 270 277 284 289 293 296 300 305 309 314 319 321 325 313 309 308 312 315 320 326 330 329 326 327 332 340 345 346 344 345 345 346 346 346 350 349 347
179 190 199 219 236 245 256 265 273 280 284 287 288 296 309 315 307 306 309 311 311 308 307 308 309 315 323 323 320 321 324 327 331 333 334 336 338 336 335 338 339 343 346
177 184 199 217 233 244 252 260 266 272 278 284 290 301 310 312 300 297 297 296 296 295 297 297 297 297 296 298 303 305 304 306 313 319 318 319 321 323 328 334 338 339 343
182 191 208 224 232 247 256 259 262 267 272 277 284 289 293 287 285 284 284 284 285 286 286 285 286 288 285 279 278 275 276 280 284 286 291 297 303 309 314 314 315 322 323
183 192 207 223 233 241 250 257 260 263 268 273 276 277 278 278 277 279 280 279 278 276 273 272 273 279 282 280 272 268 264 267 269 262 256 258 268 277 284 288 290 289 291
183 193 207 220 230 239 249 255 259 261 263 266 268 271 274 276 276 276 275 275 276 275 275 272 270 273 275 275 273 269 273 277 272 252 241 240 246 251 255 260 266 272 271
186 197 210 219 229 235 242 250 256 259 261 263 264 266 269 271 273 273 273 272 274 274 275 271 267 268 271 273 273 274 271 268 259 245 225 223 228 236 236 241 248 249 254